[[{"header":{"parameterUnit":"m.s-1","parameterCategory":1,"la1":30.2991,"la2":30.254,"lo1":-89.0895,"lo2":-89.0444,"dy":0.0017,"dx":0.0017,"nx":28,"ny":28,"refTime":"2024-04-19T03:00:00:Z","depth":0,"parameterNumber":2,"parameterNumberName":"U-component_of_WINDS"},"data":[0,0,0,0,0,0,0,0,0,0,0,0,0,0,0,0,0,0,0,0,0,0,0,0,0,0,0,0,0,0,0,0,0,0,0,0,0,0,0,0,0,0,0,0,0,0,0,0,0,0,0,0,0,0,0,0,0,0,0.8507,0.8508,0,0.8529,0.8529,0.853,0.8498,0.8497,0.8496,0.8495,0.8519,0.852,0.8522,0,0,0,0,0,0,0,0,0,0,0,0,0,0.8439,0.844,0.8507,0.8508,0.8508,0.8529,0.8529,0.853,0.8498,0.8497,0.8496,0.8494,0.8518,0.852,0.8522,0,0,0,0,0,0,0,0,0,0,0,0,0,0.8465,0.8441,0.8507,0.8495,0.8494,0.8529,0.853,0.853,0.8499,0.8497,0.8495,0.8494,0.8518,0.852,0.8522,0.8571,0,0,0.853,0.8531,0,0,0,0,0,0,0,0,0.8464,0.8468,0.8496,0.8496,0.8495,0.8509,0.8514,0.8544,0.8499,0.8497,0.8495,0.8493,0.8517,0.8519,0.8527,0.8573,0.8574,0.853,0.8532,0.8533,0.8534,0,0,0,0,0,0,0,0.8462,0.8467,0.8516,0.8497,0.8496,0.8488,0.849,0.8519,0.8516,0.8497,0.8495,0.8498,0.8516,0.8525,0.8528,0.8574,0.853,0.8532,0.8534,0.8535,0.866,0.8661,0,0,0,0,0,0,0.8462,0.8465,0.8515,0.8517,0.8475,0.8491,0.8493,0.8506,0.8516,0.8516,0.8499,0.8496,0.8521,0.8525,0.8528,0.8586,0.8533,0.8535,0.8537,0.8658,0.866,0.8662,0,0,0,0,0,0,0.846,0.8466,0.8514,0.849,0.8496,0.8494,0.8509,0.8508,0.8516,0.8517,0.8517,0.8509,0.852,0.8525,0.8561,0.8586,0.8536,0.8539,0.8656,0.8658,0.8661,0.8701,0,0,0,0,0,0,0.8458,0.8466,0.8485,0.8491,0.8497,0.8546,0.8511,0.8509,0.852,0.8517,0.8526,0.8526,0.8519,0.8557,0.8563,0.8589,0.8541,0.8653,0.8657,0.866,0.8698,0.8705,0.8711,0,0,0,0,0,0.8456,0.8496,0.8486,0.8492,0.8521,0.8548,0.8552,0.8543,0.8523,0.8541,0.8542,0.8526,0.8582,0.8561,0.8568,0.8594,0.8652,0.8656,0.866,0.8695,0.8704,0.8711,0,0,0,0,0,0,0.8493,0.8496,0.8485,0.8528,0.8538,0.8543,0.8566,0.8553,0.8569,0.8565,0.8553,0.8556,0.8594,0.8598,0.8574,0.8642,0.8614,0.8619,0.8638,0.8646,0.8653,0.8652,0.8543,0,0,0,0,0,0.8506,0.8528,0.853,0.8567,0.8572,0.8568,0.858,0.8572,0.8582,0.8586,0.8589,0.86,0.862,0.8633,0.8652,0.8698,0.8699,0.872,0.8726,0.8732,0.8737,0.8761,0.877,0.8675,0.8675,0.8675,0,0,0.8533,0.8538,0.8552,0.8575,0.8581,0.8604,0.8572,0.8598,0.8615,0.859,0.8624,0.8627,0.8638,0.8678,0.8697,0.8683,0.8763,0.8737,0.8742,0.8744,0.8766,0.8775,0.8783,0.8678,0.8677,0.8677,0,0,0.8595,0.86,0.8632,0.8639,0.8649,0.8646,0.8653,0.866,0.8661,0.8694,0.8676,0.8696,0.8731,0.8739,0.8748,0.8811,0.8797,0.8818,0.8853,0.8877,0.8884,0.8891,0.8913,0.8921,0.8822,0.8823,0.8823,0,0.8627,0.8661,0.865,0.8676,0.8687,0.8665,0.8697,0.8704,0.872,0.8728,0.8712,0.8754,0.876,0.8802,0.8818,0.8826,0.8834,0.8817,0.8884,0.889,0.8896,0.8917,0.8926,0.8825,0.8825,0.8824,0.8824,0,0.87,0.8724,0.8748,0.8763,0.8776,0.8805,0.8799,0.8813,0.8804,0.8802,0.8836,0.8843,0.8862,0.8871,0.8863,0.8912,0.8903,0.8886,0.8857,0.8908,0.8927,0.8935,0.8829,0.8828,0.8827,0.8826,0,0,0.8786,0.8794,0.8803,0.8809,0.8818,0.8836,0.8864,0.8882,0.8895,0.8906,0.8929,0.8959,0.8942,0.8952,0.8945,0.8965,0.9014,0.8946,0.8946,0.8958,0.9068,0.9081,0.9091,0.9005,0.9006,0.9008,0.9067,0,0.8847,0.8894,0.8885,0.8932,0.8953,0.8932,0.8957,0.8965,0.8964,0.8982,0.8981,0.9002,0.8979,0.8985,0.9004,0.9004,0.9037,0.9,0.9026,0.9027,0.9024,0.9101,0.9115,0.9171,0.9075,0.9076,0.9077,0,0.8924,0.8938,0.8987,0.8991,0.9,0.9022,0.9037,0.9055,0.9063,0.9061,0.9072,0.906,0.9088,0.9059,0.9096,0.9072,0.9082,0.9083,0.9085,0.9087,0.9055,0.9105,0.9189,0.9197,0.9089,0.9088,0.9087,0,0.8981,0.9012,0.9045,0.9051,0.9058,0.9073,0.9077,0.9084,0.9095,0.9109,0.9116,0.9132,0.9141,0.9155,0.9148,0.9127,0.9186,0.9157,0.9185,0.9186,0.9199,0.9198,0.9285,0.9206,0.9206,0.9205,0.9205,0,0.905,0.9081,0.907,0.9091,0.9124,0.9113,0.9146,0.9147,0.9154,0.9174,0.9157,0.9176,0.9166,0.9184,0.9179,0.921,0.9215,0.9214,0.9212,0.9215,0.9215,0.9222,0.9218,0.9208,0.9207,0.9207,0.9206,0,0.912,0.9114,0.9148,0.9152,0.9153,0.9178,0.918,0.9199,0.9197,0.9222,0.9227,0.9224,0.9244,0.9239,0.9261,0.9258,0.9298,0.9291,0.9294,0.9293,0.9321,0.9318,0.9415,0.9427,0.934,0.9341,0.9342,0,0.9164,0.9187,0.9192,0.9204,0.9209,0.9228,0.9239,0.9229,0.9241,0.9252,0.927,0.9289,0.9303,0.9337,0.9337,0.9354,0.9347,0.938,0.935,0.9352,0.9347,0.9346,0.9348,0.9386,0.9387,0.9388,0.9388,0,0.9243,0.9238,0.9255,0.927,0.9283,0.9295,0.9305,0.9316,0.9306,0.9321,0.9341,0.9353,0.9375,0.9394,0.9409,0.9413,0.9399,0.9398,0.9405,0.9409,0.941,0.9409,0.9311,0.9396,0.9395,0.9394,0.9394,0.9394,0.9301,0.932,0.9326,0.9345,0.9351,0.9361,0.9378,0.9377,0.9394,0.9411,0.9404,0.9428,0.9435,0.9454,0.946,0.9478,0.9466,0.9477,0.9479,0.9482,0.9485,0.9407,0.9481,0.9481,0.9481,0.948,0.948,0,0.9378,0.9381,0.9398,0.9412,0.9427,0.9412,0.9422,0.9435,0.9456,0.9464,0.9478,0.9502,0.952,0.952,0.9537,0.9551,0.9545,0.9556,0.9555,0.9556,0.9496,0.9487,0.9561,0.9561,0.9561,0.9561,0.9561,0.9561,0.942,0.9451,0.9448,0.9482,0.9485,0.9507,0.9514,0.9523,0.9529,0.9555,0.957,0.957,0.9575,0.9592,0.9608,0.9607,0.9614,0.9627,0.9624,0.9568,0.956,0.9553,0.9545,0.9629,0.9629,0.9683,0.9683,0.9684]},{"header":{"parameterUnit":"m.s-1","parameterCategory":1,"la1":30.2991,"la2":30.254,"lo1":-89.0895,"lo2":-89.0444,"dy":0.0017,"dx":0.0017,"nx":28,"ny":28,"refTime":"2024-04-19T03:00:00:Z","depth":0,"parameterNumber":3,"parameterNumberName":"V-component_of_WINDS"},"data":[0,0,0,0,0,0,0,0,0,0,0,0,0,0,0,0,0,0,0,0,0,0,0,0,0,0,0,0,0,0,0,0,0,0,0,0,0,0,0,0,0,0,0,0,0,0,0,0,0,0,0,0,0,0,0,0,0,0,2.8341,2.8341,0,2.839,2.839,2.8391,2.8361,2.8359,2.8358,2.8357,2.8403,2.8406,2.8408,0,0,0,0,0,0,0,0,0,0,0,0,0,2.8218,2.8221,2.8341,2.8341,2.8342,2.839,2.839,2.8391,2.8361,2.8359,2.8358,2.8356,2.8403,2.8406,2.8409,0,0,0,0,0,0,0,0,0,0,0,0,0,2.827,2.8221,2.8341,2.8333,2.8333,2.839,2.839,2.8391,2.8361,2.8359,2.8357,2.8355,2.8402,2.8405,2.8409,2.8475,0,0,2.8421,2.8423,0,0,0,0,0,0,0,0,2.8267,2.8274,2.8333,2.8334,2.8333,2.8367,2.8364,2.8419,2.8362,2.835,2.8357,2.8354,2.8393,2.8397,2.8411,2.8478,2.848,2.8421,2.8424,2.8425,2.8426,0,0,0,0,0,0,0,2.8263,2.8272,2.836,2.8334,2.8334,2.8326,2.8331,2.8375,2.8383,2.8351,2.8349,2.8356,2.8392,2.8407,2.8412,2.848,2.8421,2.8425,2.8427,2.8428,2.8603,2.8605,0,0,0,0,0,0,2.8261,2.8269,2.8358,2.8362,2.8294,2.833,2.8335,2.8358,2.8382,2.8384,2.8357,2.8354,2.8402,2.8407,2.8413,2.8492,2.8425,2.8429,2.8431,2.8601,2.8604,2.8606,0,0,0,0,0,0,2.8258,2.8269,2.8357,2.8315,2.8325,2.8334,2.836,2.836,2.8375,2.8387,2.8388,2.8371,2.84,2.8408,2.846,2.8494,2.8431,2.8434,2.8598,2.8602,2.8605,2.8651,0,0,0,0,0,0,2.8255,2.8268,2.8294,2.8316,2.8328,2.8404,2.8362,2.8363,2.8383,2.8379,2.84,2.8402,2.8399,2.8455,2.8464,2.8498,2.8437,2.8595,2.86,2.8604,2.8647,2.8656,2.8664,0,0,0,0,0,2.8251,2.8305,2.8296,2.8307,2.8361,2.8406,2.8413,2.8409,2.8385,2.8411,2.8418,2.8401,2.8489,2.846,2.8471,2.8506,2.8593,2.8598,2.8604,2.8643,2.8654,2.8663,0,0,0,0,0,0,2.8286,2.8307,2.8298,2.8361,2.8382,2.8401,2.8433,2.8421,2.8449,2.8444,2.8438,2.8443,2.8498,2.8507,2.8475,2.8571,2.8537,2.8544,2.8563,2.8574,2.8582,2.8579,2.844,0,0,0,0,0,2.8301,2.8337,2.8354,2.8407,2.8419,2.8424,2.8444,2.844,2.8461,2.8469,2.848,2.8501,2.8533,2.8554,2.8584,2.8648,2.8652,2.8677,2.8686,2.8692,2.8699,2.8733,2.8745,2.8623,2.8623,2.8623,0,0,2.8333,2.8349,2.8372,2.8415,2.8431,2.8467,2.8432,2.8472,2.8498,2.8475,2.8525,2.8534,2.8556,2.8615,2.8641,2.8624,2.8733,2.8699,2.8705,2.8707,2.874,2.8751,2.8761,2.8627,2.8626,2.8626,0,0,2.8409,2.8425,2.8472,2.8489,2.8514,2.8517,2.8528,2.8549,2.8555,2.8605,2.8588,2.8619,2.8675,2.8691,2.8707,2.8789,2.8774,2.8799,2.8843,2.8877,2.8886,2.8895,2.8924,2.8934,2.8806,2.8806,2.8806,0,2.8445,2.85,2.8497,2.8539,2.8558,2.8539,2.8586,2.8602,2.8635,2.8648,2.8629,2.8698,2.8712,2.8774,2.8794,2.8807,2.8819,2.8797,2.8885,2.8894,2.8901,2.8929,2.894,2.8809,2.8808,2.8808,2.8808,0,2.8543,2.8582,2.8616,2.865,2.8673,2.8717,2.8719,2.8742,2.8736,2.8741,2.8793,2.8809,2.8841,2.8856,2.885,2.8917,2.8906,2.8886,2.8851,2.8916,2.8942,2.8952,2.8813,2.8812,2.8811,2.881,0,0,2.8643,2.8675,2.8687,2.8702,2.8728,2.8758,2.88,2.8833,2.8853,2.8877,2.8912,2.8959,2.8941,2.8959,2.8954,2.8984,2.9048,2.896,2.8961,2.8976,2.9122,2.9137,2.9149,2.9038,2.904,2.9042,2.912,0,2.8721,2.8796,2.8795,2.8865,2.89,2.8883,2.892,2.8939,2.8945,2.8975,2.898,2.9014,2.8988,2.8999,2.9027,2.9034,2.9077,2.9028,2.907,2.9071,2.9065,2.9163,2.9178,2.9252,2.9131,2.9132,2.9134,0,2.8821,2.8849,2.8923,2.8944,2.8959,2.8993,2.9023,2.9052,2.9073,2.9075,2.9095,2.9086,2.9128,2.9093,2.915,2.9117,2.9134,2.914,2.9142,2.9146,2.9106,2.9169,2.9275,2.9286,2.915,2.9148,2.9147,0,2.8887,2.8942,2.8994,2.9007,2.9033,2.9057,2.9069,2.9088,2.9108,2.9134,2.9147,2.9177,2.9193,2.9216,2.9215,2.919,2.9274,2.9238,2.9276,2.9276,2.9294,2.9293,2.9405,2.9305,2.9305,2.9305,2.9305,0,2.8973,2.9019,2.9024,2.9055,2.9106,2.9103,2.9153,2.9162,2.9179,2.9211,2.9198,2.9228,2.9225,2.9255,2.9254,2.9302,2.9309,2.9311,2.9311,2.9313,2.9312,2.9323,2.9318,2.9308,2.9307,2.9307,2.9306,0,2.9055,2.906,2.9115,2.9135,2.9141,2.9177,2.9194,2.9223,2.9228,2.9269,2.9278,2.9285,2.932,2.9322,2.9361,2.9361,2.9419,2.9412,2.9412,2.9411,2.9448,2.9445,2.9571,2.9587,2.9477,2.9478,2.9479,0,2.911,2.9145,2.9169,2.9191,2.9204,2.9238,2.9259,2.9257,2.9279,2.9306,2.9332,2.9366,2.9393,2.9449,2.9457,2.9487,2.9481,2.9524,2.9486,2.9487,2.9482,2.948,2.9483,2.9531,2.9532,2.9533,2.9534,0,2.9207,2.9208,2.9239,2.9271,2.9296,2.9321,2.9344,2.9362,2.9363,2.9388,2.9424,2.9445,2.9486,2.952,2.9549,2.9559,2.9547,2.9546,2.9556,2.9558,2.9557,2.9558,2.9432,2.9543,2.9542,2.9541,2.9541,2.954,2.9277,2.9307,2.9329,2.9364,2.9381,2.9403,2.9432,2.9441,2.9471,2.9505,2.9502,2.9542,2.9562,2.96,2.9614,2.9644,2.9629,2.9644,2.9648,2.9652,2.9656,2.9552,2.9649,2.9649,2.9649,2.9649,2.9648,0,2.9373,2.9386,2.9419,2.9452,2.9479,2.9466,2.9491,2.9514,2.955,2.957,2.9597,2.9638,2.9671,2.9682,2.9713,2.9735,2.973,2.9743,2.9742,2.9744,2.9667,2.9655,2.9747,2.9747,2.9747,2.9747,2.9747,2.9747,2.9426,2.9477,2.948,2.9539,2.9552,2.9592,2.9607,2.9627,2.9643,2.969,2.9718,2.9725,2.9741,2.9773,2.9802,2.9804,2.9816,2.9832,2.9832,2.976,2.975,2.974,2.9729,2.9835,2.9835,2.9906,2.9907,2.9907]}]]